User: anonymous
Location: Caltech
(34.1382°N, 118.1253°W)
Time: 15:06:23
(UTC-07:00)
Language:

CZ-2C R/B - Orbit

View from above orbital plane
View from above orbital plane
View from above satellite
View from above satellite

Ground track
Ground track

The orbit data is extracted from the following two-line orbital elements,

1 36089U 09061B   14112.52440523  .00000416  00000-0  11627-3 0  3081
2 36089 098.1108 147.5808 0082046 350.8726 135.3730 14.49141763234875
Epoch (UTC): 22 April 2014 12:35:08
Eccentricity: 0.0082046
inclination: 98.1108°
perigee height: 670 km
apogee height: 787 km
right ascension of ascending node: 147.5808°
argument of perigee: 350.8726°
revolutions per day: 14.49141763
mean anomaly at epoch: 135.3730°
orbit number at epoch: 23487

The dashed part of the orbit path shows where the satellite is in the earth's shadow,  

DLR